STARLINK-32493, 62025

Orbit data source: Space-Track

STARLINK-32493, 62025 is a payload satellite owned by SpaceX/Seattle (US) in LEO that was launched on Mon, 18 Nov 2024 UTC via an FALCON 9 launch vehicle from the Air Force Western Test Range (AFWTR). Payload-class satellites include a variety of spacecraft equipped with specific instruments for various scientific and technological missions. These include communications satellites like Starlink; space stations such as the ISS; scientific satellites like the Hubble; Earth observation satellites from companies like Planet Labs, Umbra, and HawkEye 360; GPS; miniature CubeSats for education and research; and military/defense satellites.

Loading next visibility...
Identifier
62025, 2024-213T
Orbit
LEO
Country
Flag of USUS
Related business
Manufacturer
SpaceX/Seattle
Mission
Operational Commercial Communications
Bus & Motor
STARLINK V2M, Unknown motor
Mass
730 kg wet, ~700 kg dry
Launch date (UTC)
2024-11-18 (11 months ago)
Launch vehicle
FALCON 9
Launch site
Air Force Western Test Range (AFWTR)
Object type
Payload
Rocket body
Debris
Shape & HBR
Box + 2 Pan, 17.7 m
Radar Cross Section
33.884 m², Large (>1 m²)

Expand to show TLE details & history
Last TLE update: 14 hours ago

TLE from 14 hours ago
0 STARLINK-32493
1 62025U 24213T   25299.35227931  .00024792  00000-0  84606-3 0  9997
2 62025  53.1597  72.3598 0001365  86.0808 274.0349 15.30212310 52583
Epoch: 2025-10-26T08:27Z
TLE epoch observation values (Epoch: 2025-10-26T08:27:16.932Z)
Latitude
-0°
Longitude
-89.43046°
Altitude
476.012 km
Speed
7.629 km/s
True Right ascension
04h 49m 26s
True Declination
0° 00' 00"
Sunlit
Object was in full shadow at epoch
Visualization orbit readout
Latitude
Unknown
Longitude
Unknown
Altitude
Unknown
Speed
Unknown
Apparent Right ascension
Unknown
Apparent Declination
Unknown
Sunlit
N/A
Visualization observer readout
Local Sidereal Time
17:44:33
Azimuth
Unknown
Elevation
Unknown
Doppler factor
Unknown
Orbital elements
Apogee altitude
476.37 km
Perigee altitude
474.499 km
Semi-major axis
6,853.572 km
Eccentricity
0.00014
Inclination
53.1597°
RAAN
72.3598°
Arg. of periapsis
86.0808°
True anomaly
274.0193°
Mean anomaly
274.0349°
Eccentric anomaly
274.0271°
Mean motion
3.82532 °/min
Orbital period
94.11 mins
BSTAR
0.00084606
Loading maneuver chart data...
Computing Atmospheric mass density...
Loading historical data...
Loading historical data...
Loading historical data...
Loading historical data...
Loading historical data...
Loading historical data...
Loading historical data...

Documentation

Showing up to 5 results
|